Tracking 25703 objects as of 2-Jul-2022
HD Live streaming from Space Station
objects crossing your sky now

ORBCOMM FM 111

Track ORBCOMM FM 111 now!
10-day predictions
ORBCOMM FM 111 is classified as:


NORAD ID: 40089
Int'l Code: 2014-040D
Perigee: 618.7 km
Apogee: 667.1 km
Inclination: 47.0 °
Period: 97.4 minutes
Semi major axis: 7013 km
RCS: Unknown
Launch date: July 14, 2014
Source: United States (US)
Launch site: AIR FORCE EASTERN TEST RANGE (AFETR)
aabbcc
Your satellite tracking list
Your tracking list is empty




NASA's NSSDC Master Catalog

Two Line Element Set (TLE):
1 40089U 14040D   22183.43056279  .00000299  00000-0  69130-4 0  9995
2 40089  47.0071 303.7594 0034506  96.3136 264.1689 14.77972678430000
Source of the keplerian elements: AFSPC